TimeEDT,TemperatureF,Dew PointF,Humidity,Sea Level PressureIn,VisibilityMPH,Wind Direction,Wind SpeedMPH,Gust SpeedMPH,PrecipitationIn,Events,Conditions,WindDirDegrees,DateUTC
12:15 AM,35.8,35.1,97,30.16,10.0,Calm,Calm,-,N/A,,Clear,0,2013-09-24 04:15:00
12:34 AM,35.8,35.4,99,30.16,10.0,Calm,Calm,-,N/A,,Clear,0,2013-09-24 04:34:00
12:55 AM,35.8,35.4,99,30.16,10.0,Calm,Calm,-,N/A,,Clear,0,2013-09-24 04:55:00
1:15 AM,34.5,34.3,99,30.16,10.0,Calm,Calm,-,N/A,,Clear,0,2013-09-24 05:15:00
1:34 AM,33.3,33.3,100,30.16,10.0,Calm,Calm,-,N/A,,Clear,0,2013-09-24 05:34:00
1:55 AM,33.3,33.3,100,30.16,10.0,Calm,Calm,-,N/A,,Clear,0,2013-09-24 05:55:00
2:15 AM,33.3,32.9,99,30.16,10.0,Calm,Calm,-,N/A,,Clear,0,2013-09-24 06:15:00
2:34 AM,33.3,32.5,97,30.16,10.0,Calm,Calm,-,N/A,,Clear,0,2013-09-24 06:34:00
2:55 AM,31.8,31.8,100,30.16,2.5,Calm,Calm,-,N/A,,Clear,0,2013-09-24 06:55:00
3:14 AM,33.3,33.3,100,30.15,10.0,Calm,Calm,-,N/A,,Clear,0,2013-09-24 07:14:00
3:35 AM,33.3,33.3,100,30.15,10.0,Calm,Calm,-,N/A,,Clear,0,2013-09-24 07:35:00
3:54 AM,32.5,32.2,99,30.15,10.0,Calm,Calm,-,N/A,,Clear,0,2013-09-24 07:54:00
4:15 AM,31.1,30.4,97,30.15,10.0,Calm,Calm,-,N/A,,Clear,0,2013-09-24 08:15:00
4:34 AM,32.0,31.8,99,30.15,10.0,Calm,Calm,-,N/A,,Clear,0,2013-09-24 08:34:00
4:55 AM,31.1,30.6,98,30.16,10.0,Calm,Calm,-,N/A,,Clear,0,2013-09-24 08:55:00
5:14 AM,33.3,32.0,95,30.16,10.0,Calm,Calm,-,N/A,,Clear,0,2013-09-24 09:14:00
5:35 AM,31.1,30.2,96,30.16,10.0,Calm,Calm,-,N/A,,Mostly Cloudy,0,2013-09-24 09:35:00
5:55 AM,33.1,31.8,95,30.16,10.0,Calm,Calm,-,N/A,,Overcast,0,2013-09-24 09:55:00
6:14 AM,33.3,32.0,95,30.16,10.0,Calm,Calm,-,N/A,,Overcast,0,2013-09-24 10:14:00
6:35 AM,32.5,31.3,95,30.16,10.0,Calm,Calm,-,N/A,,Overcast,0,2013-09-24 10:35:00
6:55 AM,33.3,33.3,100,30.17,0.2,Calm,Calm,-,N/A,Fog,Fog,0,2013-09-24 10:55:00
7:15 AM,33.3,33.3,100,30.17,0.2,Calm,Calm,-,N/A,Fog,Fog,0,2013-09-24 11:15:00
7:34 AM,33.1,33.1,100,30.18,0.2,Calm,Calm,-,N/A,Fog,Fog,0,2013-09-24 11:34:00
7:55 AM,33.3,33.3,100,30.18,0.2,Calm,Calm,-,N/A,Fog,Fog,0,2013-09-24 11:55:00
8:14 AM,33.3,33.3,100,30.18,0.2,Calm,Calm,-,N/A,Fog,Fog,0,2013-09-24 12:14:00
8:35 AM,33.3,33.3,100,30.18,0.2,Calm,Calm,-,N/A,Fog,Fog,0,2013-09-24 12:35:00
8:55 AM,35.8,35.8,100,30.18,0.2,Calm,Calm,-,N/A,Fog,Fog,0,2013-09-24 12:55:00
9:14 AM,35.8,35.8,100,30.18,0.8,Calm,Calm,-,N/A,,Overcast,0,2013-09-24 13:14:00
9:35 AM,38.3,38.3,100,30.18,0.5,Calm,Calm,-,N/A,Fog,Fog,0,2013-09-24 13:35:00
9:54 AM,40.5,40.5,100,30.18,2.5,Calm,Calm,-,N/A,,Overcast,0,2013-09-24 13:54:00
10:15 AM,43.7,43.7,100,30.17,10.0,Calm,Calm,-,N/A,,Scattered Clouds,0,2013-09-24 14:15:00
10:35 AM,48.4,45.9,91,30.16,10.0,Calm,Calm,-,N/A,,Clear,0,2013-09-24 14:35:00
10:55 AM,53.4,47.7,81,30.16,10.0,Calm,Calm,-,N/A,,Clear,0,2013-09-24 14:55:00
11:15 AM,55.9,46.4,70,30.16,10.0,Calm,Calm,-,N/A,,Clear,0,2013-09-24 15:15:00
11:34 AM,57.4,44.6,62,30.15,10.0,Calm,Calm,-,N/A,,Clear,0,2013-09-24 15:34:00
11:55 AM,58.5,44.8,60,30.14,10.0,Calm,Calm,-,N/A,,Clear,0,2013-09-24 15:55:00
12:14 PM,58.8,44.8,60,30.14,10.0,SSE,3.5,-,N/A,,Clear,160,2013-09-24 16:14:00
12:35 PM,59.9,44.6,57,30.13,10.0,East,8.1,-,N/A,,Clear,90,2013-09-24 16:35:00
12:55 PM,60.3,44.2,55,30.12,10.0,Calm,Calm,-,N/A,,Clear,0,2013-09-24 16:55:00
1:14 PM,61.0,44.2,54,30.12,10.0,SE,6.9,-,N/A,,Clear,130,2013-09-24 17:14:00
1:35 PM,62.1,43.5,51,30.11,10.0,SE,5.8,-,N/A,,Clear,140,2013-09-24 17:35:00
1:54 PM,63.3,43.7,49,30.10,10.0,SE,3.5,-,N/A,,Clear,140,2013-09-24 17:54:00
2:15 PM,63.5,43.0,47,30.09,10.0,Calm,Calm,-,N/A,,Clear,0,2013-09-24 18:15:00
2:35 PM,64.9,43.2,45,30.08,10.0,SE,5.8,-,N/A,,Clear,140,2013-09-24 18:35:00
2:54 PM,67.1,43.7,43,30.08,10.0,SSE,3.5,-,N/A,,Clear,160,2013-09-24 18:54:00
3:15 PM,68.5,44.1,41,30.07,10.0,SE,5.8,-,N/A,,Clear,130,2013-09-24 19:15:00
3:34 PM,68.5,43.3,40,30.07,10.0,Calm,Calm,-,N/A,,Clear,0,2013-09-24 19:34:00
3:55 PM,68.5,43.0,40,30.07,10.0,ESE,4.6,-,N/A,,Clear,120,2013-09-24 19:55:00
4:15 PM,68.5,42.6,39,30.06,10.0,ESE,8.1,-,N/A,,Clear,120,2013-09-24 20:15:00
4:34 PM,68.5,42.4,39,30.05,10.0,Calm,Calm,-,N/A,,Clear,0,2013-09-24 20:34:00
4:55 PM,68.5,42.3,38,30.04,10.0,ESE,6.9,-,N/A,,Clear,120,2013-09-24 20:55:00
5:14 PM,68.5,42.6,39,30.05,10.0,Calm,Calm,-,N/A,,Clear,0,2013-09-24 21:14:00
5:35 PM,68.5,43.5,40,30.04,10.0,South,4.6,-,N/A,,Clear,180,2013-09-24 21:35:00
5:55 PM,68.5,44.2,42,30.04,10.0,SSE,5.8,-,N/A,,Clear,160,2013-09-24 21:55:00
6:14 PM,68.5,44.2,42,30.04,10.0,South,3.5,-,N/A,,Clear,170,2013-09-24 22:14:00
6:35 PM,68.2,44.8,43,30.04,10.0,South,4.6,-,N/A,,Clear,180,2013-09-24 22:35:00
6:55 PM,66.0,44.2,45,30.04,10.0,South,3.5,-,N/A,,Clear,180,2013-09-24 22:55:00
7:14 PM,60.6,45.3,57,30.04,10.0,Calm,Calm,-,N/A,,Clear,0,2013-09-24 23:14:00
7:35 PM,55.6,45.1,68,30.04,10.0,Calm,Calm,-,N/A,,Clear,0,2013-09-24 23:35:00
7:54 PM,54.9,46.8,74,30.04,10.0,Calm,Calm,-,N/A,,Clear,0,2013-09-24 23:54:00
8:15 PM,53.6,46.8,78,30.04,10.0,Calm,Calm,-,N/A,,Clear,0,2013-09-25 00:15:00
8:35 PM,49.6,45.9,87,30.04,10.0,Calm,Calm,-,N/A,,Clear,0,2013-09-25 00:35:00
8:54 PM,48.4,46.4,93,30.04,10.0,Calm,Calm,-,N/A,,Clear,0,2013-09-25 00:54:00
9:15 PM,48.4,46.6,93,30.04,10.0,Calm,Calm,-,N/A,,Clear,0,2013-09-25 01:15:00
9:34 PM,45.7,43.5,92,30.04,10.0,Calm,Calm,-,N/A,,Clear,0,2013-09-25 01:34:00
9:55 PM,43.3,42.8,98,30.03,10.0,Calm,Calm,-,N/A,,Clear,0,2013-09-25 01:55:00
10:15 PM,45.1,44.8,99,30.04,10.0,Calm,Calm,-,N/A,,Clear,0,2013-09-25 02:15:00
10:35 PM,40.1,39.7,99,30.04,10.0,Calm,Calm,-,N/A,,Clear,0,2013-09-25 02:35:00
10:55 PM,41.0,40.6,99,30.04,10.0,Calm,Calm,-,N/A,,Clear,0,2013-09-25 02:55:00
11:14 PM,40.8,40.8,100,30.04,7.0,Calm,Calm,-,N/A,,Clear,0,2013-09-25 03:14:00
11:35 PM,37.4,37.4,100,30.05,7.0,Calm,Calm,-,N/A,,Clear,0,2013-09-25 03:35:00
11:54 PM,39.7,39.7,100,30.04,7.0,Calm,Calm,-,N/A,,Clear,0,2013-09-25 03:54:00